IU1CYJ Weather Reports


time (UTC)temp
C
wind
direction
speed
KPH
gust
KPH
rain 1hr
cm
rain 24hr
cm
rain mn
cm
humidity
%
barometer
mb
20260508013052 13 0 0.0 0.0 0.00 0.00 0.00 81 1014.3
20260508011605 14 0 0.0 0.0 0.00 0.00 0.00 80 1014.4
20260508010053 14 0 0.0 1.6 0.00 0.00 0.00 78 1014.4
20260508004554 14 0 0.0 1.6 0.00 0.00 0.00 79 1014.4
20260508003053 14 0 0.0 0.0 0.00 0.00 0.00 81 1014.5
20260508001556 15 0 0.0 0.0 0.00 0.00 0.00 81 1014.5
20260508000054 15 0 0.0 0.0 0.00 0.00 0.00 78 1014.3
20260507234602 15 0 0.0 0.0 0.00 0.00 0.00 79 1014.5
20260507233053 15 0 0.0 0.0 0.00 0.00 0.00 80 1014.4
20260507231601 15 0 0.0 0.0 0.00 0.00 0.00 80 1014.5
20260507230101 15 0 0.0 0.0 0.00 0.00 0.00 78 1014.5
20260507224556 15 0 0.0 0.0 0.00 0.00 0.00 78 1014.6
20260507223058 15 0 0.0 0.0 0.00 0.00 0.00 79 1014.4
20260507221600 15 0 0.0 0.0 0.00 0.00 0.00 79 1014.4
20260507220053 15 0 0.0 0.0 0.00 0.00 0.00 80 1014.4
20260507214558 15 0 0.0 0.0 0.00 0.00 0.00 79 1014.3
20260507213056 15 0 0.0 0.0 0.00 0.00 0.00 78 1014.2
20260507211553 16 0 0.0 0.0 0.00 0.00 0.00 76 1014.0
20260507210054 16 0 0.0 0.0 0.00 0.00 0.00 75 1014.0
20260507204554 16 0 0.0 0.0 0.00 0.00 0.00 74 1014.1
20260507203105 16 0 0.0 0.0 0.00 0.00 0.00 73 1014.0
20260507201553 17 0 0.0 0.0 0.00 0.00 0.00 72 1013.7
20260507200054 17 0 0.0 1.6 0.00 0.00 0.00 71 1013.6
20260507194558 17 175 0.0 0.0 0.00 0.00 0.00 71 1013.5
20260507193102 17 0 0.0 0.0 0.00 0.00 0.00 70 1013.3
20260507191558 17 175 0.0 0.0 0.00 0.00 0.00 70 1013.0
20260507190059 17 0 0.0 0.0 0.00 0.00 0.00 69 1013.0
20260507184557 18 0 0.0 0.0 0.00 0.00 0.00 67 1012.9
20260507183106 18 0 0.0 1.6 0.00 0.00 0.00 61 1012.6
20260507181607 19 0 0.0 0.0 0.00 0.00 0.00 55 1012.4
20260507180059 19 0 0.0 0.0 0.00 0.00 0.00 53 1012.3
20260507174609 19 165 0.0 1.6 0.00 0.00 0.00 54 1012.2
20260507173109 20 0 0.0 1.6 0.00 0.00 0.00 51 1012.2
20260507171615 20 0 0.0 4.8 0.00 0.00 0.00 49 1012.0
20260507170100 20 0 0.0 1.6 0.00 0.00 0.00 51 1012.1
20260507164613 20 161 0.0 3.2 0.00 0.00 0.00 52 1011.9
20260507163111 20 157 0.0 6.4 0.00 0.00 0.00 50 1012.0
20260507161606 20 0 0.0 3.2 0.00 0.00 0.00 52 1012.0
20260507160132 20 0 1.6 6.4 0.00 0.00 0.00 50 1012.0
20260507154553 20 0 0.0 4.8 0.00 0.00 0.00 51 1011.9
20260507153055 20 159 0.0 3.2 0.00 0.00 0.00 53 1011.9
20260507151553 20 154 0.0 6.4 0.00 0.00 0.00 52 1012.1
20260507150057 20 153 0.0 3.2 0.00 0.00 0.00 53 1012.0
20260507144555 19 146 0.0 6.4 0.00 0.00 0.00 54 1012.2
20260507143100 19 158 0.0 6.4 0.00 0.00 0.00 54 1012.3
20260507141558 19 0 0.0 3.2 0.00 0.00 0.00 54 1012.4
20260507140051 19 162 1.6 4.8 0.00 0.00 0.00 54 1012.5
20260507134556 19 157 1.6 6.4 0.00 0.00 0.00 54 1012.6
20260507133057 19 153 1.6 4.8 0.00 0.00 0.00 54 1012.7
20260507131604 19 142 0.0 8.0 0.00 0.00 0.00 54 1012.9
20260507130100 19 0 0.0 6.4 0.00 0.00 0.00 55 1013.0
20260507124555 19 157 0.0 8.0 0.00 0.00 0.00 56 1013.1
20260507123051 19 160 1.6 9.7 0.00 0.00 0.00 57 1013.1
20260507121553 19 180 0.0 6.4 0.00 0.00 0.00 58 1013.1
20260507120057 19 153 0.0 8.0 0.00 0.00 0.00 60 1013.2
20260507114600 18 0 1.6 8.0 0.00 0.00 0.00 61 1013.4
20260507113053 18 155 1.6 8.0 0.00 0.00 0.00 60 1013.5
20260507111553 18 128 3.2 8.0 0.00 0.00 0.00 60 1013.7
20260507110114 19 262 0.0 6.4 0.00 0.00 0.00 63 1013.8
20260507104554 19 165 1.6 6.4 0.00 0.00 0.00 66 1013.9
20260507103057 18 159 0.0 4.8 0.00 0.00 0.00 63 1014.2
20260507101559 18 169 1.6 4.8 0.00 0.00 0.00 67 1014.1
20260507100055 17 0 0.0 4.8 0.00 0.00 0.00 66 1014.2
20260507094609 18 171 1.6 6.4 0.00 0.00 0.00 63 1014.2
20260507093058 18 157 1.6 6.4 0.00 0.00 0.00 65 1014.1
20260507091631 18 178 1.6 6.4 0.00 0.00 0.00 63 1014.1
20260507090105 18 159 0.0 3.2 0.00 0.00 0.00 63 1014.1
20260507084558 17 152 0.0 4.8 0.00 0.00 0.00 66 1013.9
20260507083057 17 154 0.0 4.8 0.00 0.00 0.00 70 1013.8
20260507081552 15 157 1.6 4.8 0.00 0.00 0.00 76 1013.8
20260507080055 15 153 0.0 4.8 0.00 0.00 0.00 76 1013.8
20260507074553 15 0 0.0 3.2 0.00 0.00 0.00 77 1013.9
20260507073054 15 0 0.0 3.2 0.00 0.00 0.00 81 1013.9
20260507071557 13 0 0.0 1.6 0.00 0.00 0.00 83 1013.9
20260507070104 14 190 0.0 1.6 0.00 0.00 0.00 82 1013.6
20260507064602 14 0 0.0 8.0 0.00 0.00 0.00 82 1013.7
20260507063057 14 0 0.0 1.6 0.00 0.00 0.00 79 1013.6
20260507061555 13 0 0.0 1.6 0.00 0.00 0.00 81 1013.5
20260507060110 14 0 0.0 1.6 0.00 0.00 0.00 81 1013.3
20260507054556 13 0 0.0 1.6 0.00 0.00 0.00 84 1013.1
20260507053056 13 0 0.0 0.0 0.00 0.00 0.00 85 1012.9
20260507051556 12 0 0.0 1.6 0.00 0.00 0.00 86 1012.8
20260507050100 12 0 0.0 0.0 0.00 0.00 0.00 87 1012.7
20260507044552 12 0 0.0 1.6 0.00 0.08 0.00 88 1012.6
20260507043058 12 0 0.0 3.2 0.00 0.08 0.00 88 1012.4
20260507041556 12 262 0.0 3.2 0.00 0.08 0.00 89 1012.4
20260507040101 11 252 0.0 3.2 0.00 0.08 0.00 89 1012.3
20260507034559 11 0 0.0 1.6 0.00 0.18 0.00 89 1012.2
20260507033054 11 0 0.0 1.6 0.00 0.18 0.00 88 1012.1
20260507031555 11 0 0.0 3.2 0.00 0.18 0.00 88 1011.9
20260507030056 12 186 0.0 6.4 0.00 0.18 0.00 87 1011.9
20260507024600 12 187 0.0 4.8 0.00 0.18 0.00 86 1011.9
20260507023056 12 0 0.0 8.0 0.00 0.18 0.00 86 1011.9
20260507021600 12 259 1.6 3.2 0.00 0.18 0.00 84 1011.9
20260507020059 12 0 1.6 3.2 0.00 0.18 0.00 84 1012.0
20260507014559 12 234 0.0 1.6 0.00 0.18 0.00 84 1011.8